GTI516 ZSPD-PANC

Flight info

Callsign GTI516
Flight time N/A
Altitude 33000
Route LAM81D LAMEN/N0494F330 A593 SADLI Y590 BEDAR Y591 BESMU Y14 SAMON Y142 GTC Y512 OATIS R580 OPULO/N0480F350 R580 OBOYD DCT ORVIL/N0483F370 R580 HAMND NEELL7
Aircraft B77L/H-SDE1E2E3FGHIJ2J3J4J5M1RWXY/LB1D1

Departure

Time 2026-05-06 06:24
Airport Shanghai Pudong International Airport (ZSPD)

Arrival

Time N/A
Airport Ted Stevens Anchorage International Airport (PANC)
Time Latitude Longitude Altitude Speed Heading
2026-05-06 06:07 31.14275 121.78352 28 ft 0 kts 252°
2026-05-06 06:15 31.14283 121.78380 26 ft 4 kts 252°
2026-05-06 06:16 31.14292 121.78410 26 ft 4 kts 253°
2026-05-06 06:16 31.14294 121.78441 25 ft 4 kts 281°
2026-05-06 06:16 31.14281 121.78467 24 ft 4 kts 323°
2026-05-06 06:16 31.14274 121.78473 25 ft 0 kts 341°
2026-05-06 06:17 31.14300 121.78463 25 ft 11 kts 342°
2026-05-06 06:18 31.14429 121.78417 27 ft 24 kts 342°
2026-05-06 06:18 31.14586 121.78357 27 ft 24 kts 342°
2026-05-06 06:18 31.14745 121.78296 27 ft 24 kts 342°
2026-05-06 06:18 31.14903 121.78237 27 ft 24 kts 342°
2026-05-06 06:19 31.15061 121.78177 27 ft 24 kts 341°
2026-05-06 06:19 31.15219 121.78117 27 ft 24 kts 343°
2026-05-06 06:19 31.15365 121.78069 28 ft 7 kts
2026-05-06 06:19 31.15402 121.78116 28 ft 10 kts 72°
2026-05-06 06:20 31.15432 121.78222 28 ft 17 kts 72°
2026-05-06 06:20 31.15474 121.78374 30 ft 22 kts 72°
2026-05-06 06:20 31.15527 121.78563 28 ft 27 kts 72°
2026-05-06 06:20 31.15586 121.78788 30 ft 31 kts 74°
2026-05-06 06:21 31.15622 121.78979 27 ft 13 kts 54°
2026-05-06 06:21 31.15694 121.78985 27 ft 13 kts 342°
2026-05-06 06:21 31.15803 121.78944 27 ft 20 kts 342°
2026-05-06 06:21 31.15953 121.78883 27 ft 26 kts 341°
2026-05-06 06:22 31.16132 121.78814 27 ft 12 kts 329°
2026-05-06 06:22 31.16138 121.78718 27 ft 15 kts 250°
2026-05-06 06:22 31.16079 121.78625 27 ft 12 kts 191°
2026-05-06 06:22 31.15983 121.78653 31 ft 20 kts 162°
2026-05-06 06:23 31.15677 121.78768 26 ft 77 kts 162°
2026-05-06 06:23 31.14983 121.79030 29 ft 131 kts 162°
2026-05-06 06:23 31.13973 121.79411 30 ft 172 kts 161°
2026-05-06 06:23 31.12808 121.79893 315 ft 179 kts 160°
2026-05-06 06:24 31.11586 121.80307 727 ft 180 kts 162°
2026-05-06 06:24 31.10427 121.80694 1439 ft 172 kts 164°
2026-05-06 06:24 31.09254 121.81088 1818 ft 185 kts 165°
2026-05-06 06:24 31.07937 121.81517 1990 ft 205 kts 166°
2026-05-06 06:25 31.06461 121.82013 2095 ft 233 kts 164°
2026-05-06 06:25 31.05404 121.82366 2257 ft 244 kts 164°
2026-05-06 06:25 31.02096 121.83436 3494 ft 252 kts 165°
2026-05-06 06:26 31.00408 121.84002 4171 ft 251 kts 163°
2026-05-06 06:26 30.98732 121.84635 4792 ft 257 kts 159°
2026-05-06 06:26 30.97060 121.85433 5384 ft 261 kts 158°
2026-05-06 06:26 30.95364 121.86262 5971 ft 265 kts 159°
2026-05-06 06:27 30.93634 121.87093 6492 ft 273 kts 159°
2026-05-06 06:27 30.91855 121.87872 7069 ft 276 kts 163°
2026-05-06 06:27 30.90010 121.88539 7601 ft 281 kts 165°
2026-05-06 06:27 30.88120 121.89215 8137 ft 286 kts 164°
2026-05-06 06:28 30.86203 121.89906 8678 ft 291 kts 165°
2026-05-06 06:28 30.84257 121.90615 9260 ft 294 kts 163°
2026-05-06 06:28 30.82439 121.91713 9675 ft 302 kts 138°
2026-05-06 06:28 30.81234 121.93720 10106 ft 308 kts 109°
2026-05-06 06:29 30.80949 121.96195 10419 ft 318 kts 82°
2026-05-06 06:29 30.81510 121.98730 10568 ft 332 kts 71°
2026-05-06 06:29 30.82262 122.01366 10721 ft 354 kts 70°
2026-05-06 06:29 30.83078 122.04175 10880 ft 377 kts 70°
2026-05-06 06:30 30.83925 122.07115 11333 ft 389 kts 70°
2026-05-06 06:30 30.84781 122.10128 11937 ft 396 kts 71°
2026-05-06 06:30 30.85641 122.13192 12574 ft 401 kts 71°
2026-05-06 06:30 30.86502 122.16281 13364 ft 402 kts 71°
2026-05-06 06:31 30.87366 122.19397 14029 ft 406 kts 71°
2026-05-06 06:31 30.88238 122.22544 14546 ft 412 kts 71°
2026-05-06 06:31 30.89121 122.25735 15151 ft 415 kts 71°
2026-05-06 06:31 30.90120 122.28883 15658 ft 417 kts 61°
2026-05-06 06:32 30.91816 122.31597 16062 ft 416 kts 45°
2026-05-06 06:32 30.93806 122.34075 16552 ft 421 kts 46°
2026-05-06 06:32 30.95756 122.36630 17236 ft 422 kts 47°
2026-05-06 06:32 30.97670 122.39227 17914 ft 423 kts 48°
2026-05-06 06:33 30.99315 122.42072 18266 ft 431 kts 64°
2026-05-06 06:33 31.00103 122.45475 18623 ft 441 kts 84°
2026-05-06 06:33 31.00134 122.49047 19042 ft 443 kts 89°
2026-05-06 06:33 31.00094 122.52610 19456 ft 448 kts 89°
2026-05-06 06:34 31.00062 122.56247 19952 ft 450 kts 89°
2026-05-06 06:34 31.00042 122.59907 20455 ft 453 kts 89°
2026-05-06 06:34 31.00032 122.63592 20925 ft 457 kts 88°
2026-05-06 06:34 31.00029 122.67313 21372 ft 461 kts 88°
2026-05-06 06:35 31.00029 122.71061 21834 ft 464 kts 88°
2026-05-06 06:35 31.00029 122.74835 22291 ft 467 kts 88°
2026-05-06 06:35 31.00029 122.78638 22736 ft 471 kts 88°
2026-05-06 06:35 31.00027 122.82468 23167 ft 474 kts 88°
2026-05-06 06:36 31.00023 122.86329 23581 ft 478 kts 88°
2026-05-06 06:36 31.00019 122.90213 23935 ft 481 kts 88°
2026-05-06 06:36 31.00013 122.94117 24334 ft 483 kts 88°
2026-05-06 06:36 31.00134 122.98006 24607 ft 480 kts 78°
2026-05-06 06:37 31.01016 123.01619 24795 ft 479 kts 62°
2026-05-06 06:37 31.02768 123.04870 25129 ft 471 kts 49°
2026-05-06 06:37 31.04766 123.07913 25412 ft 475 kts 50°
2026-05-06 06:37 31.06746 123.11020 25760 ft 479 kts 50°
2026-05-06 06:38 31.08709 123.14167 26153 ft 481 kts 51°
2026-05-06 06:38 31.10672 123.17355 26472 ft 485 kts 51°
2026-05-06 06:38 31.12632 123.20562 26891 ft 486 kts 51°
2026-05-06 06:38 31.14595 123.23781 27281 ft 488 kts 51°
2026-05-06 06:39 31.16567 123.27017 27633 ft 490 kts 51°
2026-05-06 06:39 31.18552 123.30270 27956 ft 494 kts 51°
2026-05-06 06:39 31.20549 123.33546 28294 ft 496 kts 51°
2026-05-06 06:39 31.22556 123.36839 28621 ft 499 kts 51°
2026-05-06 06:40 31.24574 123.40151 28964 ft 501 kts 51°
2026-05-06 06:40 31.26598 123.43476 29248 ft 504 kts 51°
2026-05-06 06:40 31.28634 123.46827 29528 ft 507 kts 51°
2026-05-06 06:40 31.30678 123.50192 29838 ft 509 kts 51°
2026-05-06 06:41 31.32727 123.53567 30198 ft 509 kts 51°
2026-05-06 06:41 31.34774 123.56935 30621 ft 506 kts 50°
2026-05-06 06:41 31.36814 123.60274 31056 ft 504 kts 50°
2026-05-06 06:41 31.38849 123.63597 31483 ft 501 kts 50°
2026-05-06 06:42 31.40877 123.66910 31865 ft 500 kts 50°
2026-05-06 06:42 31.42897 123.70213 32228 ft 498 kts 50°
2026-05-06 06:42 31.44909 123.73510 32654 ft 496 kts 50°
2026-05-06 06:42 31.46906 123.76787 32983 ft 495 kts 50°
2026-05-06 06:43 31.48917 123.80087 33005 ft 499 kts 50°
2026-05-06 06:43 31.52937 123.86700 33022 ft 496 kts 50°
2026-05-06 06:44 31.56921 123.93267 33049 ft 493 kts 50°
2026-05-06 06:44 31.60819 123.99861 33027 ft 494 kts 57°
2026-05-06 06:44 31.62080 124.03484 33058 ft 499 kts 71°
2026-05-06 06:45 31.62936 124.07432 33036 ft 501 kts 72°
2026-05-06 06:45 31.64537 124.15397 33042 ft 503 kts 72°
2026-05-06 06:46 31.66209 124.23328 33065 ft 504 kts 72°
2026-05-06 06:46 31.67970 124.31311 33047 ft 506 kts 71°
2026-05-06 06:47 31.69751 124.39313 33053 ft 507 kts 71°
2026-05-06 06:47 31.71524 124.47327 33052 ft 507 kts 71°
2026-05-06 06:48 31.73287 124.55345 33048 ft 506 kts 71°
2026-05-06 06:48 31.75038 124.63339 33049 ft 504 kts 71°
2026-05-06 06:49 31.76777 124.71303 33051 ft 502 kts 71°
2026-05-06 06:49 31.78506 124.79241 33061 ft 500 kts 71°
2026-05-06 06:50 31.80224 124.87155 33046 ft 499 kts 71°
2026-05-06 06:50 31.81894 124.95072 33052 ft 500 kts 75°
2026-05-06 06:51 31.82339 125.03156 33064 ft 508 kts 89°
2026-05-06 06:51 31.81288 125.11396 33061 ft 511 kts 98°
2026-05-06 06:52 31.79853 125.19591 33058 ft 512 kts 98°
2026-05-06 06:52 31.78462 125.27797 33079 ft 511 kts 97°
2026-05-06 06:53 31.77116 125.35993 33058 ft 511 kts 97°
2026-05-06 06:53 31.75772 125.44185 33058 ft 510 kts 97°
2026-05-06 06:54 31.74431 125.52304 33071 ft 510 kts 97°
2026-05-06 06:54 31.73086 125.60532 33061 ft 508 kts 95°
2026-05-06 06:55 31.72917 125.68717 33065 ft 498 kts 81°
2026-05-06 06:55 31.74225 125.76568 33077 ft 490 kts 70°
2026-05-06 06:56 31.76017 125.84293 33063 ft 490 kts 71°
2026-05-06 06:56 31.77725 125.92035 33060 ft 489 kts 71°
2026-05-06 06:57 31.79406 125.99777 33058 ft 488 kts 71°
2026-05-06 06:57 31.81072 126.07381 33056 ft 489 kts 71°
2026-05-06 06:58 31.82765 126.15131 33059 ft 490 kts 71°
2026-05-06 06:58 31.84455 126.22903 33058 ft 491 kts 71°
2026-05-06 06:59 31.86143 126.30697 33069 ft 492 kts 71°
2026-05-06 06:59 31.87827 126.38497 33059 ft 492 kts 71°
2026-05-06 07:00 31.89504 126.46287 33055 ft 491 kts 71°
2026-05-06 07:00 31.91194 126.54064 33072 ft 490 kts 71°
2026-05-06 07:01 31.92914 126.61813 33058 ft 489 kts 71°
2026-05-06 07:01 31.94625 126.69547 33059 ft 487 kts 71°
2026-05-06 07:02 31.96320 126.77262 33070 ft 486 kts 71°
2026-05-06 07:02 31.98002 126.84953 33043 ft 484 kts 71°
2026-05-06 07:03 31.99677 126.92631 33064 ft 484 kts 71°
2026-05-06 07:03 32.01326 127.00215 33077 ft 485 kts 71°
2026-05-06 07:04 32.02993 127.07899 33054 ft 485 kts 71°